Year,Month,Day,Hour,Minute,Value (Times are PST for barometer in hPa)
2019,01,18,09,13,723.80
2019,01,18,09,14,723.80
2019,01,18,09,15,723.80
2019,01,18,09,16,723.80
2019,01,18,09,17,723.80
2019,01,18,09,18,723.80
2019,01,18,09,19,723.80
2019,01,18,09,20,723.80
2019,01,18,09,21,723.80
2019,01,18,09,22,723.80
2019,01,18,09,23,723.80
2019,01,18,09,24,723.80
2019,01,18,09,25,723.80
2019,01,18,09,26,723.80
2019,01,18,09,27,723.80
2019,01,18,09,28,723.80
2019,01,18,09,29,723.80
2019,01,18,09,30,723.80
2019,01,18,09,31,723.80
2019,01,18,09,32,723.80
2019,01,18,09,33,723.80
2019,01,18,09,34,723.80
2019,01,18,09,35,723.80
2019,01,18,09,36,723.80
2019,01,18,09,37,723.80
2019,01,18,09,38,723.80
2019,01,18,09,39,723.80
2019,01,18,09,40,723.80
2019,01,18,09,41,723.80
2019,01,18,09,42,723.80
2019,01,18,09,43,723.80
2019,01,18,09,44,723.80
2019,01,18,09,45,723.80
2019,01,18,09,46,723.80
2019,01,18,09,47,723.80
2019,01,18,09,48,723.80
2019,01,18,09,49,723.80
2019,01,18,09,50,723.80
2019,01,18,09,51,723.80
2019,01,18,09,52,723.80
2019,01,18,09,53,723.80
2019,01,18,09,54,723.80
2019,01,18,09,55,723.80
2019,01,18,09,56,723.80
2019,01,18,09,57,723.80
2019,01,18,09,58,723.80
2019,01,18,09,59,723.80
2019,01,18,10,00,723.80
2019,01,18,10,01,723.80
2019,01,18,10,02,723.80
2019,01,18,10,03,723.80
2019,01,18,10,04,723.80
2019,01,18,10,05,723.80
2019,01,18,10,06,723.80
2019,01,18,10,07,723.80
2019,01,18,10,08,723.80
2019,01,18,10,09,723.80
2019,01,18,10,10,723.80
2019,01,18,10,11,723.80
2019,01,18,10,12,723.80
2019,01,18,10,13,723.80
2019,01,18,10,14,723.80
2019,01,18,10,15,723.80
2019,01,18,10,16,723.80
2019,01,18,10,17,723.80
2019,01,18,10,18,723.80
2019,01,18,10,19,723.80
2019,01,18,10,20,723.80
2019,01,18,10,21,723.80
2019,01,18,10,22,723.80
2019,01,18,10,23,723.80
2019,01,18,10,24,723.80
2019,01,18,10,25,723.80
2019,01,18,10,26,723.80
2019,01,18,10,27,723.80
2019,01,18,10,28,723.80
2019,01,18,10,29,723.80
2019,01,18,10,30,723.80
2019,01,18,10,31,723.80
2019,01,18,10,32,723.80
2019,01,18,10,33,723.80
2019,01,18,10,34,723.70
2019,01,18,10,35,723.70
2019,01,18,10,36,723.70
2019,01,18,10,37,723.70
2019,01,18,10,38,723.70
2019,01,18,10,39,723.70
2019,01,18,10,40,723.70
2019,01,18,10,41,723.70
2019,01,18,10,42,723.70
2019,01,18,10,43,723.70
2019,01,18,10,44,723.70
2019,01,18,10,45,723.70
2019,01,18,10,46,723.70
2019,01,18,10,47,723.70
2019,01,18,10,48,723.70
2019,01,18,10,49,723.70
2019,01,18,10,50,723.70
2019,01,18,10,51,723.70
2019,01,18,10,52,723.70
2019,01,18,10,53,723.70
2019,01,18,10,54,723.70
2019,01,18,10,55,723.70
2019,01,18,10,56,723.70
2019,01,18,10,57,723.70
2019,01,18,10,58,723.70
2019,01,18,10,59,723.70
2019,01,18,11,00,723.70
2019,01,18,11,01,723.70
2019,01,18,11,02,723.70
2019,01,18,11,03,723.70
2019,01,18,11,04,723.70
2019,01,18,11,05,723.70
2019,01,18,11,06,723.70
2019,01,18,11,07,723.70
2019,01,18,11,08,723.70
2019,01,18,11,09,723.70
2019,01,18,11,10,723.70
2019,01,18,11,11,723.70
2019,01,18,11,12,723.70
2019,01,18,11,13,723.70
2019,01,18,11,14,723.70
2019,01,18,11,15,723.70
2019,01,18,11,16,723.70
2019,01,18,11,17,723.70
2019,01,18,11,18,723.70
2019,01,18,11,19,723.70
2019,01,18,11,20,723.70
2019,01,18,11,21,723.70
2019,01,18,11,22,723.70
2019,01,18,11,23,723.70
2019,01,18,11,24,723.70
2019,01,18,11,25,723.70
2019,01,18,11,26,723.70
2019,01,18,11,27,723.70
2019,01,18,11,28,723.70
2019,01,18,11,29,723.70
2019,01,18,11,30,723.70
2019,01,18,11,31,723.70
2019,01,18,11,32,723.70
2019,01,18,11,33,723.70
2019,01,18,11,34,723.70
2019,01,18,11,35,723.70
2019,01,18,11,36,723.70
2019,01,18,11,37,723.70
2019,01,18,11,38,723.70
2019,01,18,11,39,723.70
2019,01,18,11,40,723.70
2019,01,18,11,41,723.70
2019,01,18,11,42,723.70
2019,01,18,11,43,710.70
2019,01,18,11,44,710.70
2019,01,18,11,45,710.70
2019,01,18,11,46,710.70
2019,01,18,11,47,710.70
2019,01,18,11,48,710.70
2019,01,18,11,49,710.70
2019,01,18,11,50,710.70
2019,01,18,11,51,710.70
2019,01,18,11,52,710.70
2019,01,18,11,53,710.70
2019,01,18,11,54,710.70
2019,01,18,11,55,719.40
2019,01,18,11,56,719.40
2019,01,18,11,57,719.40
2019,01,18,11,58,719.40
2019,01,18,11,59,719.40
2019,01,18,12,00,719.40
2019,01,18,12,01,719.40
2019,01,18,12,02,719.40
2019,01,18,12,03,719.40
2019,01,18,12,04,719.40
2019,01,18,12,05,719.40
2019,01,18,12,06,719.40
2019,01,18,12,07,719.40
2019,01,18,12,08,719.40
2019,01,18,12,09,719.40
2019,01,18,12,10,719.40
2019,01,18,12,11,719.40
2019,01,18,12,12,719.40
2019,01,18,12,13,719.40
2019,01,18,12,14,719.40
2019,01,18,12,15,719.40
2019,01,18,12,16,719.40
2019,01,18,12,17,719.40
2019,01,18,12,18,719.40
2019,01,18,12,19,719.40
2019,01,18,12,20,719.40
2019,01,18,12,21,719.40
2019,01,18,12,22,719.40
2019,01,18,12,23,719.40
2019,01,18,12,24,719.40
2019,01,18,12,25,719.40
2019,01,18,12,26,719.40
2019,01,18,12,27,719.40
2019,01,18,12,28,719.40
2019,01,18,12,29,719.40
2019,01,18,12,30,719.40
2019,01,18,12,31,719.40
2019,01,18,12,32,719.40
2019,01,18,12,33,719.40
2019,01,18,12,34,719.40
2019,01,18,12,35,719.40
2019,01,18,12,36,719.40
2019,01,18,12,37,719.40
2019,01,18,12,38,719.40
2019,01,18,12,39,719.40
2019,01,18,12,40,719.40
2019,01,18,12,41,719.40
2019,01,18,12,42,719.40
2019,01,18,12,43,719.40
2019,01,18,12,44,719.40
2019,01,18,12,45,719.40
2019,01,18,12,46,719.40
2019,01,18,12,47,719.40
2019,01,18,12,48,719.40
2019,01,18,12,49,719.40
2019,01,18,12,50,719.40
2019,01,18,12,51,719.40
2019,01,18,12,52,719.40
2019,01,18,12,53,719.40
2019,01,18,12,54,719.40
2019,01,18,12,55,719.40
2019,01,18,12,56,719.40
2019,01,18,12,57,719.40
2019,01,18,12,58,719.40
2019,01,18,12,59,719.40
2019,01,18,13,00,719.40
2019,01,18,13,01,719.40
2019,01,18,13,02,719.40
2019,01,18,13,03,719.40
2019,01,18,13,04,719.40
2019,01,18,13,05,719.40
2019,01,18,13,06,719.40
2019,01,18,13,07,719.40
2019,01,18,13,08,719.40
2019,01,18,13,09,719.40
2019,01,18,13,10,719.40
2019,01,18,13,11,719.40
2019,01,18,13,12,719.40
2019,01,18,13,13,719.40
2019,01,18,13,14,719.40
2019,01,18,13,15,710.70
2019,01,18,13,16,710.70
2019,01,18,13,17,710.70
2019,01,18,13,18,710.70
2019,01,18,13,19,710.70
2019,01,18,13,20,710.70
2019,01,18,13,21,710.70
2019,01,18,13,22,710.70
2019,01,18,13,23,715.10
2019,01,18,13,24,715.10
2019,01,18,13,25,715.10
2019,01,18,13,26,715.10
2019,01,18,13,27,715.10
2019,01,18,13,28,715.10
2019,01,18,13,29,715.10
2019,01,18,13,30,715.10
2019,01,18,13,31,715.10
2019,01,18,13,32,715.10
2019,01,18,13,33,715.10
2019,01,18,13,34,723.70
2019,01,18,13,35,723.70
2019,01,18,13,36,723.70
2019,01,18,13,37,723.70
2019,01,18,13,38,723.70
2019,01,18,13,39,723.70
2019,01,18,13,40,723.70
2019,01,18,13,41,723.70
2019,01,18,13,42,723.70
2019,01,18,13,43,719.40
2019,01,18,13,44,719.40
2019,01,18,13,45,719.40
2019,01,18,13,46,719.40
2019,01,18,13,47,719.40
2019,01,18,13,48,719.40
2019,01,18,13,49,719.40
2019,01,18,13,50,719.40
2019,01,18,13,51,719.40
2019,01,18,13,52,719.40
2019,01,18,13,53,719.40
2019,01,18,13,54,719.40
2019,01,18,13,55,723.70
2019,01,18,13,56,723.70
2019,01,18,13,57,723.70
2019,01,18,13,58,723.70
2019,01,18,13,59,723.70
2019,01,18,14,00,723.70
2019,01,18,14,01,723.70
2019,01,18,14,02,723.70
2019,01,18,14,03,723.80
2019,01,18,14,04,723.80
2019,01,18,14,05,723.80
2019,01,18,14,06,723.80
2019,01,18,14,07,723.80
2019,01,18,14,08,723.80
2019,01,18,14,09,723.80
2019,01,18,14,10,723.80
2019,01,18,14,11,723.80
2019,01,18,14,12,723.80
2019,01,18,14,13,723.70
2019,01,18,14,14,723.70
2019,01,18,14,15,723.70
2019,01,18,14,16,723.70
2019,01,18,14,17,723.70
2019,01,18,14,18,723.70
2019,01,18,14,19,723.70
2019,01,18,14,20,723.70
2019,01,18,14,21,723.70
2019,01,18,14,22,723.70
2019,01,18,14,23,723.80
2019,01,18,14,24,723.80
2019,01,18,14,25,723.80
2019,01,18,14,26,723.80
2019,01,18,14,27,723.80
2019,01,18,14,28,723.80
2019,01,18,14,29,723.80
2019,01,18,14,30,723.80
2019,01,18,14,31,723.80
2019,01,18,14,32,723.80
2019,01,18,14,33,723.80
2019,01,18,14,34,723.80
2019,01,18,14,35,723.80
2019,01,18,14,36,723.80
2019,01,18,14,37,723.80
2019,01,18,14,38,723.80
2019,01,18,14,39,723.80
2019,01,18,14,40,723.80
2019,01,18,14,41,723.80
2019,01,18,14,42,723.80
2019,01,18,14,43,723.80
2019,01,18,14,44,723.80
2019,01,18,14,45,723.80
2019,01,18,14,46,723.80
2019,01,18,14,47,723.80
2019,01,18,14,48,723.80
2019,01,18,14,49,723.80
2019,01,18,14,50,723.80
2019,01,18,14,51,723.80
2019,01,18,14,52,723.80
2019,01,18,14,53,723.80
2019,01,18,14,54,723.80
2019,01,18,14,55,723.80
2019,01,18,14,56,723.80
2019,01,18,14,57,723.80
2019,01,18,14,58,723.80
2019,01,18,14,59,723.80
2019,01,18,15,00,723.80
2019,01,18,15,01,723.80
2019,01,18,15,02,723.80
2019,01,18,15,03,723.80
2019,01,18,15,04,723.80
2019,01,18,15,05,723.80
2019,01,18,15,06,723.80
2019,01,18,15,07,723.80
2019,01,18,15,08,723.80
2019,01,18,15,09,723.80
2019,01,18,15,10,723.80
2019,01,18,15,11,723.80
2019,01,18,15,12,723.80
2019,01,18,15,13,723.80
2019,01,18,15,14,723.80
2019,01,18,15,15,723.80
2019,01,18,15,16,723.80
2019,01,18,15,17,723.80
2019,01,18,15,18,723.80
2019,01,18,15,19,723.80
2019,01,18,15,20,723.80
2019,01,18,15,21,723.80
2019,01,18,15,22,723.80
2019,01,18,15,23,723.80
2019,01,18,15,24,723.80
2019,01,18,15,25,723.80
2019,01,18,15,26,723.80
2019,01,18,15,27,723.80
2019,01,18,15,28,723.80
2019,01,18,15,29,723.80
2019,01,18,15,30,723.80
2019,01,18,15,31,723.80
2019,01,18,15,32,723.80
2019,01,18,15,33,723.80
2019,01,18,15,34,723.80
2019,01,18,15,35,723.80
2019,01,18,15,36,723.80
2019,01,18,15,37,723.80
2019,01,18,15,38,723.80
2019,01,18,15,39,723.80
2019,01,18,15,40,723.80
2019,01,18,15,41,723.80
2019,01,18,15,42,723.80
2019,01,18,15,43,723.80
2019,01,18,15,44,723.80
2019,01,18,15,45,723.80
2019,01,18,15,46,723.80
2019,01,18,15,47,723.80
2019,01,18,15,48,723.80
2019,01,18,15,49,723.80
2019,01,18,15,50,723.80
2019,01,18,15,51,723.80
2019,01,18,15,52,723.80
2019,01,18,15,53,723.80
2019,01,18,15,54,723.80
2019,01,18,15,55,723.80
2019,01,18,15,56,723.80
2019,01,18,15,57,723.80
2019,01,18,15,58,723.80
2019,01,18,15,59,723.80
2019,01,18,16,00,723.80
2019,01,18,16,01,723.80
2019,01,18,16,02,723.80
2019,01,18,16,03,723.80
2019,01,18,16,04,723.80
2019,01,18,16,05,723.80
2019,01,18,16,06,723.80
2019,01,18,16,07,723.80
2019,01,18,16,08,723.80
2019,01,18,16,09,723.80
2019,01,18,16,10,723.80
2019,01,18,16,11,723.80
2019,01,18,16,12,723.80
2019,01,18,16,13,723.80
2019,01,18,16,14,723.80
2019,01,18,16,15,723.80
2019,01,18,16,16,723.80
2019,01,18,16,17,723.80
2019,01,18,16,18,723.80
2019,01,18,16,19,723.80
2019,01,18,16,20,723.80
2019,01,18,16,21,723.80
2019,01,18,16,22,723.80
2019,01,18,16,23,723.80
2019,01,18,16,24,723.80
2019,01,18,16,25,723.80
2019,01,18,16,26,723.80
2019,01,18,16,27,723.80
2019,01,18,16,28,723.80
2019,01,18,16,29,723.80
2019,01,18,16,30,723.80
2019,01,18,16,31,723.80
2019,01,18,16,32,723.80
2019,01,18,16,33,723.80
2019,01,18,16,34,723.80
2019,01,18,16,35,723.80
2019,01,18,16,36,723.80
2019,01,18,16,37,723.80
2019,01,18,16,38,723.80
2019,01,18,16,39,723.80
2019,01,18,16,40,723.80
2019,01,18,16,41,723.80
2019,01,18,16,42,723.80
2019,01,18,16,43,723.80
2019,01,18,16,44,723.80
2019,01,18,16,45,723.80
2019,01,18,16,46,723.80
2019,01,18,16,47,723.80
2019,01,18,16,48,723.80
2019,01,18,16,49,723.80
2019,01,18,16,50,723.80
2019,01,18,16,51,723.80
2019,01,18,16,52,723.80
2019,01,18,16,53,723.80
2019,01,18,16,54,723.80
2019,01,18,16,55,723.80
2019,01,18,16,56,723.80
2019,01,18,16,57,723.80
2019,01,18,16,58,723.80
2019,01,18,16,59,723.80
2019,01,18,17,00,723.80
2019,01,18,17,01,723.80
2019,01,18,17,02,723.80
2019,01,18,17,03,723.80
2019,01,18,17,04,723.80
2019,01,18,17,05,723.80
2019,01,18,17,06,723.80
2019,01,18,17,07,723.80
2019,01,18,17,08,723.80
2019,01,18,17,09,723.80
2019,01,18,17,10,723.80
2019,01,18,17,11,723.80
2019,01,18,17,12,723.80
2019,01,18,17,13,723.80
2019,01,18,17,14,723.80
2019,01,18,17,15,723.80
2019,01,18,17,16,723.80
2019,01,18,17,17,723.80
2019,01,18,17,18,723.80
2019,01,18,17,19,723.80
2019,01,18,17,20,723.80
2019,01,18,17,21,723.80
2019,01,18,17,22,723.80
2019,01,18,17,23,723.80
2019,01,18,17,24,729.70
2019,01,18,17,25,729.70
2019,01,18,17,26,729.70
2019,01,18,17,27,729.70
2019,01,18,17,28,729.70
2019,01,18,17,29,729.70
2019,01,18,17,30,729.70
2019,01,18,17,31,729.70
2019,01,18,17,32,729.70
2019,01,18,17,33,729.70
2019,01,18,17,34,729.70
2019,01,18,17,35,726.70
2019,01,18,17,36,726.70
2019,01,18,17,37,726.70
2019,01,18,17,38,726.70
2019,01,18,17,39,726.70
2019,01,18,17,40,726.70
2019,01,18,17,41,726.70
2019,01,18,17,42,726.70
2019,01,18,17,43,726.70
2019,01,18,17,44,726.70
2019,01,18,17,45,723.80
2019,01,18,17,46,723.80
2019,01,18,17,47,723.80
2019,01,18,17,48,723.80
2019,01,18,17,49,723.80
2019,01,18,17,50,723.80
2019,01,18,17,51,723.80
2019,01,18,17,52,723.80
2019,01,18,17,53,724.00
2019,01,18,17,54,724.00
2019,01,18,17,55,724.00
2019,01,18,17,56,724.00
2019,01,18,17,57,724.00
2019,01,18,17,58,724.00
2019,01,18,17,59,724.00
2019,01,18,18,00,724.00
2019,01,18,18,01,724.00
2019,01,18,18,02,724.00
2019,01,18,18,03,724.00
2019,01,18,18,04,724.00
2019,01,18,18,05,724.00
2019,01,18,18,06,724.00
2019,01,18,18,07,724.00
2019,01,18,18,08,724.00
2019,01,18,18,09,724.00
2019,01,18,18,10,724.00
2019,01,18,18,11,724.00
2019,01,18,18,12,724.00
2019,01,18,18,13,724.00
2019,01,18,18,14,724.00
2019,01,18,18,15,724.00
2019,01,18,18,16,724.00
2019,01,18,18,17,724.00
2019,01,18,18,18,724.00
2019,01,18,18,19,724.00
2019,01,18,18,20,724.00
2019,01,18,18,21,724.00
2019,01,18,18,22,724.00
2019,01,18,18,23,724.00
2019,01,18,18,24,724.00
2019,01,18,18,25,724.00
2019,01,18,18,26,724.00
2019,01,18,18,27,724.00
2019,01,18,18,28,724.00
2019,01,18,18,29,724.00
2019,01,18,18,30,724.00
2019,01,18,18,31,724.00
2019,01,18,18,32,724.00
2019,01,18,18,33,724.00
2019,01,18,18,34,724.00
2019,01,18,18,35,724.00
2019,01,18,18,36,724.00
2019,01,18,18,37,724.00
2019,01,18,18,38,724.00
2019,01,18,18,39,724.00
2019,01,18,18,40,724.00
2019,01,18,18,41,724.00
2019,01,18,18,42,724.00
2019,01,18,18,43,724.00
2019,01,18,18,44,724.00
2019,01,18,18,45,724.00
2019,01,18,18,46,724.00
2019,01,18,18,47,724.00
2019,01,18,18,48,724.00
2019,01,18,18,49,724.00
2019,01,18,18,50,724.00
2019,01,18,18,51,724.00
2019,01,18,18,52,724.00
2019,01,18,18,53,724.00
2019,01,18,18,54,724.00
2019,01,18,18,55,724.00
2019,01,18,18,56,724.00
2019,01,18,18,57,724.00
2019,01,18,18,58,724.00
2019,01,18,18,59,724.00
2019,01,18,19,00,724.00
2019,01,18,19,01,724.00
2019,01,18,19,02,724.00
2019,01,18,19,03,724.00
2019,01,18,19,04,724.00
2019,01,18,19,05,724.00
2019,01,18,19,06,724.00
2019,01,18,19,07,724.00
2019,01,18,19,08,724.00
2019,01,18,19,09,724.00
2019,01,18,19,10,724.00
2019,01,18,19,11,724.00
2019,01,18,19,12,724.00
2019,01,18,19,13,724.00
2019,01,18,19,14,724.00
2019,01,18,19,15,724.00
2019,01,18,19,16,724.00
2019,01,18,19,17,724.00
2019,01,18,19,18,724.00
2019,01,18,19,19,724.00
2019,01,18,19,20,724.00
2019,01,18,19,21,724.00
2019,01,18,19,22,724.00
2019,01,18,19,23,724.00
2019,01,18,19,24,724.00
2019,01,18,19,25,724.00
2019,01,18,19,26,724.00
2019,01,18,19,27,724.00
2019,01,18,19,28,724.00
2019,01,18,19,29,724.00
2019,01,18,19,30,724.00
2019,01,18,19,31,724.00
2019,01,18,19,32,724.00
2019,01,18,19,33,724.00
2019,01,18,19,34,724.00
2019,01,18,19,35,724.00
2019,01,18,19,36,724.00
2019,01,18,19,37,724.00
2019,01,18,19,38,724.00
2019,01,18,19,39,724.00
2019,01,18,19,40,724.00
2019,01,18,19,41,724.00
2019,01,18,19,42,724.00
2019,01,18,19,43,724.00
2019,01,18,19,44,724.00
2019,01,18,19,45,724.00
2019,01,18,19,46,724.00
2019,01,18,19,47,724.00
2019,01,18,19,48,724.00
2019,01,18,19,49,724.00
2019,01,18,19,50,724.00
2019,01,18,19,51,724.00
2019,01,18,19,52,724.00
2019,01,18,19,53,724.00
2019,01,18,19,54,724.00
2019,01,18,19,55,724.00
2019,01,18,19,56,724.00
2019,01,18,19,57,724.00
2019,01,18,19,58,724.00
2019,01,18,19,59,724.00
2019,01,18,20,00,724.00
2019,01,18,20,01,724.00
2019,01,18,20,02,724.00
2019,01,18,20,03,724.00
2019,01,18,20,04,724.00
2019,01,18,20,05,724.00
2019,01,18,20,06,724.00
2019,01,18,20,07,724.00
2019,01,18,20,08,724.00
2019,01,18,20,09,724.00
2019,01,18,20,10,724.00
2019,01,18,20,11,724.00
2019,01,18,20,12,724.00
2019,01,18,20,13,724.00
2019,01,18,20,14,724.00
2019,01,18,20,15,724.00
2019,01,18,20,16,724.00
2019,01,18,20,17,724.00
2019,01,18,20,18,724.00
2019,01,18,20,19,724.00
2019,01,18,20,20,724.00
2019,01,18,20,21,724.00
2019,01,18,20,22,724.00
2019,01,18,20,23,724.00
2019,01,18,20,24,724.00
2019,01,18,20,25,724.00
2019,01,18,20,26,724.00
2019,01,18,20,27,724.00
2019,01,18,20,28,724.00
2019,01,18,20,29,724.00
2019,01,18,20,30,724.00
2019,01,18,20,31,724.00
2019,01,18,20,32,724.00
2019,01,18,20,33,724.00
2019,01,18,20,34,724.00
2019,01,18,20,35,724.00
2019,01,18,20,36,724.00
2019,01,18,20,37,724.00
2019,01,18,20,38,724.00
2019,01,18,20,39,724.00
2019,01,18,20,40,724.00
2019,01,18,20,41,724.00
2019,01,18,20,42,724.00
2019,01,18,20,43,724.00
2019,01,18,20,44,724.00
2019,01,18,20,45,724.00
2019,01,18,20,46,724.00
2019,01,18,20,47,724.00
2019,01,18,20,48,724.00
2019,01,18,20,49,724.00
2019,01,18,20,50,724.00
2019,01,18,20,51,724.00
2019,01,18,20,52,724.00
2019,01,18,20,53,724.00
2019,01,18,20,54,723.20
2019,01,18,20,55,723.20
2019,01,18,20,56,723.20
2019,01,18,20,57,723.20
2019,01,18,20,58,723.20
2019,01,18,20,59,723.20
2019,01,18,21,00,723.20
2019,01,18,21,01,723.20
2019,01,18,21,02,723.20
2019,01,18,21,03,723.20
2019,01,18,21,04,723.20
2019,01,18,21,05,723.20
2019,01,18,21,06,723.20
2019,01,18,21,07,723.20
2019,01,18,21,08,723.20
2019,01,18,21,09,723.20
2019,01,18,21,10,723.20
2019,01,18,21,11,723.20
2019,01,18,21,12,723.20
2019,01,18,21,13,723.20
2019,01,18,21,14,723.20
2019,01,18,21,15,723.20
2019,01,18,21,16,723.20
2019,01,18,21,17,723.20
2019,01,18,21,18,723.20
2019,01,18,21,19,723.20
2019,01,18,21,20,723.20
2019,01,18,21,21,723.20
2019,01,18,21,22,723.20
2019,01,18,21,23,723.20
2019,01,18,21,24,723.20
2019,01,18,21,25,723.20
2019,01,18,21,26,723.20
2019,01,18,21,27,723.20
2019,01,18,21,28,723.20
2019,01,18,21,29,723.20
2019,01,18,21,30,723.20
2019,01,18,21,31,723.20
2019,01,18,21,32,723.20
2019,01,18,21,33,723.20
2019,01,18,21,34,722.50
2019,01,18,21,35,722.50
2019,01,18,21,36,722.50
2019,01,18,21,37,722.50
2019,01,18,21,38,722.50
2019,01,18,21,39,722.50
2019,01,18,21,40,722.50
2019,01,18,21,41,722.50
2019,01,18,21,42,722.50
2019,01,18,21,43,722.50
2019,01,18,21,44,721.00
2019,01,18,21,45,721.00
2019,01,18,21,46,721.00
2019,01,18,21,47,721.00
2019,01,18,21,48,721.00
2019,01,18,21,49,721.00
2019,01,18,21,50,721.00
2019,01,18,21,51,721.00
2019,01,18,21,52,721.00
2019,01,18,21,53,722.50
2019,01,18,21,54,722.50
2019,01,18,21,55,722.50
2019,01,18,21,56,722.50
2019,01,18,21,57,722.50
2019,01,18,21,58,722.50
2019,01,18,21,59,722.50
2019,01,18,22,00,722.50
2019,01,18,22,01,722.50
2019,01,18,22,02,722.50
2019,01,18,22,03,722.50
2019,01,18,22,04,722.50
2019,01,18,22,05,722.50
2019,01,18,22,06,722.50
2019,01,18,22,07,722.50
2019,01,18,22,08,722.50
2019,01,18,22,09,722.50
2019,01,18,22,10,722.50
2019,01,18,22,11,722.50
2019,01,18,22,12,722.50
2019,01,18,22,13,722.50
2019,01,18,22,14,722.50
2019,01,18,22,15,722.50
2019,01,18,22,16,722.50
2019,01,18,22,17,722.50
2019,01,18,22,18,722.50
2019,01,18,22,19,722.50
2019,01,18,22,20,722.50
2019,01,18,22,21,722.50
2019,01,18,22,22,722.50
2019,01,18,22,23,724.00
2019,01,18,22,24,724.00
2019,01,18,22,25,724.00
2019,01,18,22,26,724.00
2019,01,18,22,27,724.00
2019,01,18,22,28,724.00
2019,01,18,22,29,724.00
2019,01,18,22,30,724.00
2019,01,18,22,31,724.00
2019,01,18,22,32,724.00
2019,01,18,22,33,724.00
2019,01,18,22,34,724.00
2019,01,18,22,35,724.00
2019,01,18,22,36,724.00
2019,01,18,22,37,724.00
2019,01,18,22,38,724.00
2019,01,18,22,39,724.00
2019,01,18,22,40,724.00
2019,01,18,22,41,724.00
2019,01,18,22,42,724.00
2019,01,18,22,43,724.00
2019,01,18,22,44,724.00
2019,01,18,22,45,724.00
2019,01,18,22,46,724.00
2019,01,18,22,47,724.00
2019,01,18,22,48,724.00
2019,01,18,22,49,724.00
2019,01,18,22,50,724.00
2019,01,18,22,51,724.00
2019,01,18,22,52,724.00
2019,01,18,22,53,724.00
2019,01,18,22,54,724.00
2019,01,18,22,55,724.00
2019,01,18,22,56,724.00
2019,01,18,22,57,724.00
2019,01,18,22,58,724.00
2019,01,18,22,59,724.00
2019,01,18,23,00,724.00
2019,01,18,23,01,724.00
2019,01,18,23,02,724.00
2019,01,18,23,03,724.00
2019,01,18,23,04,724.00
2019,01,18,23,05,724.00
2019,01,18,23,06,724.00
2019,01,18,23,07,724.00
2019,01,18,23,08,724.00
2019,01,18,23,09,724.00
2019,01,18,23,10,724.00
2019,01,18,23,11,724.00
2019,01,18,23,12,724.00
2019,01,18,23,13,724.00
2019,01,18,23,14,724.00
2019,01,18,23,15,724.00
2019,01,18,23,16,724.00
2019,01,18,23,17,724.00
2019,01,18,23,18,724.00
2019,01,18,23,19,724.00
2019,01,18,23,20,724.00
2019,01,18,23,21,724.00
2019,01,18,23,22,724.00
2019,01,18,23,23,724.00
2019,01,18,23,24,724.00
2019,01,18,23,25,724.00
2019,01,18,23,26,724.00
2019,01,18,23,27,724.00
2019,01,18,23,28,724.00
2019,01,18,23,29,724.00
2019,01,18,23,30,724.00
2019,01,18,23,31,724.00
2019,01,18,23,32,724.00
2019,01,18,23,33,724.00
2019,01,18,23,34,724.00
2019,01,18,23,35,724.00
2019,01,18,23,36,724.00
2019,01,18,23,37,724.00
2019,01,18,23,38,724.00
2019,01,18,23,39,724.00
2019,01,18,23,40,724.00
2019,01,18,23,41,724.00
2019,01,18,23,42,724.00
2019,01,18,23,43,724.00
2019,01,18,23,44,724.00
2019,01,18,23,45,724.00
2019,01,18,23,46,724.00
2019,01,18,23,47,724.00
2019,01,18,23,48,724.00
2019,01,18,23,49,724.00
2019,01,18,23,50,724.00
2019,01,18,23,51,724.00
2019,01,18,23,52,724.00
2019,01,18,23,53,724.00
2019,01,18,23,54,724.00
2019,01,18,23,55,724.00
2019,01,18,23,56,724.00
2019,01,18,23,57,724.00
2019,01,18,23,58,724.00
2019,01,18,23,59,724.00
